Wind_Speed
7 5 5 6 5 5 6 7 8 8 8 9 10 12 11 11 11 10 9 10 9 11 12 11 10 9 8 7 5 4 9 4 5 6 9 7 7 7 7 6 6 6 11 12 10
9 9 6 6 7 5 5 7 8 9 8 8 8 9 10 10 11 13 14 15 14 14 13 12 11 10 10 6 5 4 1 3 3 6 7 8 9 10 9 8 7 7 9 7 4
4 11 9 6 7 7 6 7 8 9 10 11 12 13 15 16 17 16 16 15 14 14 13 12 11 10 11 7 6 5 4 4 6 6 8 10 11 13 11 12 12 10 11 8 6
3 8 10 7 7 7 7 8 9 11 13 13 14 15 16 16 16 15 15 15 14 14 12 11 11 12 11 9 8 7 7 7 7 7 7 7 10 12 11 13 15 13 12 10 11
6 7 7 7 8 10 11 11 13 14 14 14 14 14 14 14 14 13 12 11 11 11 9 8 9 9 8 6 7 9 9 9 9 7 7 7 8 9 11 13 15 15 15 13 13
7 9 11 13 14 14 13 14 14 13 13 12 12 12 12 11 11 10 9 8 7 7 7 6 6 5 4 4 7 9 10 11 9 8 7 7 8 9 12 13 14 16 17 15 14
9 10 12 13 13 13 14 13 13 12 10 10 10 10 10 9 8 8 7 6 5 5 5 3 2 2 2 3 5 9 11 10 11 11 9 8 14 14 13 14 15 16 17 16 16
11 11 11 11 11 10 9 9 9 8 8 7 7 7 7 8 7 6 6 5 4 4 3 3 3 2 0 2 5 9 13 6 12 11 10 9 6 12 15 16 17 17 16 18 17
13 12 12 12 11 10 9 7 6 6 6 6 6 6 6 6 5 5 4 4 5 5 3 4 4 3 2 2 5 9 1 8 8 12 11 10 6 17 15 18 20 19 18 17 16
15 14 13 13 13 12 12 11 11 10 9 9 8 9 8 8 7 6 5 5 6 8 7 7 6 5 3 1 0 9 7 9 8 9 11 8 12 16 20 16 17 15 16 16 17
17 16 15 14 14 14 14 14 13 13 13 12 12 12 11 10 9 9 8 7 8 9 9 8 6 5 4 10 5 5 7 8 12 14 10 9 13 14 15 18 14 14 15 14 15
20 18 17 16 16 16 17 17 16 16 15 16 15 14 13 12 12 10 10 9 9 10 9 7 5 6 8 6 6 7 7 8 14 15 11 11 10 8 10 12 12 10 12 11 16
21 20 19 18 17 17 18 19 19 18 18 17 16 14 12 12 11 11 10 10 9 9 7 7 6 9 8 7 7 7 9 12 13 4 14 14 22 11 11 10 11 10 10 12 15
18 18 18 18 19 20 20 19 20 20 19 21 18 15 13 11 10 10 9 7 8 7 6 7 8 9 9 8 6 3 16 10 6 7 5 14 14 14 3 10 12 9 8 11 13
19 18 18 18 18 13 11 9 9 10 8 17 21 16 14 11 8 9 9 9 9 8 8 10 8 9 10 7 8 9 8 4 2 8 9 20 16 22 14 11 12 7 6 9 11
19 19 17 13 11 11 10 9 9 10 12 16 19 16 13 12 13 12 12 12 10 9 10 11 11 12 10 9 5 4 5 12 12 10 13 9 11 24 20 9 10 10 8 9 12
15 13 12 12 11 11 11 11 12 7 13 12 11 12 12 11 11 11 11 9 7 1 6 6 6 6 4 5 3 6 9 12 9 13 19 2 15 10 13 16 16 12 8 10 11
12 12 11 11 11 12 13 14 14 11 8 4 5 5 7 8 8 6 4 4 3 9 2 5 8 7 4 2 6 8 10 4 10 10 20 7 4 12 24 14 12 12 10 10 11
11 11 11 11 12 13 14 13 5 10 10 7 8 7 9 8 8 5 5 3 8 6 4 3 6 11 4 3 2 3 4 9 7 9 7 15 9 20 26 4 11 13 13 10 10
10 11 13 14 14 15 16 15 16 9 12 11 7 8 8 8 7 7 6 11 10 12 12 7 4 8 11 13 3 3 11 4 8 6 6 13 9 26 12 25 23 12 12 13 11
12 13 14 14 15 15 13 13 13 13 13 16 11 9 8 9 7 6 8 14 10 9 8 7 8 9 8 10 6 10 8 7 6 11 9 10 23 5 19 20 20 11 10 11 10
14 15 15 15 16 14 10 14 13 13 14 14 15 11 12 13 7 11 10 17 9 10 8 12 8 10 14 15 12 17 17 12 13 16 10 14 23 9 16 16 16 17 11 10 12
15 15 14 17 17 14 14 16 16 16 18 18 19 17 17 11 16 17 19 11 12 14 14 13 8 9 12 14 25 15 9 13 14 16 20 14 25 29 25 22 18 18 17 15 11
16 16 15 14 14 19 20 19 20 19 19 20 18 17 17 17 19 19 19 15 14 16 12 15 14 16 14 18 18 10 9 14 15 17 19 23 32 30 15 21 20 20 20 19 19
18 18 17 18 19 22 24 24 22 22 25 24 23 24 22 20 18 18 20 18 16 13 13 13 13 15 16 16 26 31 31 27 24 20 24 22 20 32 27 34 33 25 22 23 23
19 19 19 18 19 20 21 23 25 26 25 27 25 22 21 21 21 21 18 20 19 19 16 17 17 18 16 21 22 21 20 23 23 23 23 23 20 41 44 44 38 31 26 22 23
19 18 19 19 19 20 25 23 24 22 25 26 24 23 25 23 20 22 22 21 21 20 21 20 22 24 20 21 25 25 20 22 18 20 21 22 31 43 43 39 35 29 27 24 22
Wind_Direction
203 200 189 190 179 154 151 155 148 153 170 184 192 192 190 184 180 178 169 165 163 142 127 123 115 105 89 89 99 106 57 287 305 296 299 307 313 305 311 320 326 283 293 302 296
223 211 199 198 196 180 164 164 165 157 146 145 154 165 170 170 163 162 160 150 138 131 127 117 106 94 80 61 69 60 89 330 330 307 307 297 293 295 307 308 302 305 306 310 310
223 208 199 192 193 193 176 164 155 153 150 139 132 129 131 136 139 140 137 136 135 130 123 115 99 87 85 66 58 53 46 33 11 360 339 310 291 290 291 322 296 300 297 268 283
118 175 188 181 167 173 174 160 149 143 140 135 130 126 128 130 132 132 136 137 135 130 125 110 99 93 83 72 57 48 43 38 16 359 333 319 304 296 283 267 282 285 286 283 274
108 140 167 173 167 154 144 139 135 134 133 132 131 129 130 130 130 130 131 133 133 133 130 120 111 93 85 64 46 39 37 32 9 359 331 313 291 282 278 271 273 276 274 270 274
127 125 131 136 137 134 130 131 129 131 130 131 133 132 129 131 130 131 134 137 138 144 148 143 130 119 90 56 37 28 31 28 6 355 337 317 311 296 283 274 275 274 273 272 269
160 147 142 141 139 135 131 129 131 133 135 136 137 140 141 139 140 139 140 144 152 162 161 173 171 141 95 13 27 25 25 13 349 341 350 354 360 318 291 293 283 276 274 269 270
188 180 169 163 159 155 150 144 139 139 138 136 144 155 160 163 164 160 162 164 175 190 186 205 243 243 243 358 22 24 20 11 310 337 339 354 22 291 315 310 298 285 275 273 271
202 200 198 195 193 194 196 198 196 188 184 182 180 185 193 194 185 184 185 195 213 241 241 258 262 265 271 340 3 333 339 293 326 331 329 338 324 306 320 327 323 306 286 274 276
209 210 210 213 216 219 223 226 229 230 227 226 218 213 218 226 225 223 218 215 224 240 247 254 265 263 236 352 160 211 264 296 307 301 307 323 332 319 309 332 320 314 298 283 280
218 218 219 222 225 227 231 235 237 241 242 239 237 235 234 234 234 227 228 234 244 249 256 258 263 248 210 248 239 267 293 313 316 296 305 303 317 334 311 311 306 309 306 304 281
221 224 227 230 234 235 238 240 239 239 242 243 241 239 236 234 233 233 243 255 257 252 254 257 252 223 221 237 270 303 309 329 302 318 332 336 296 281 323 316 313 300 280 298 303
224 227 231 235 237 242 246 248 248 246 244 243 241 238 235 233 234 241 249 250 240 237 238 232 245 218 227 256 292 312 311 277 280 309 353 321 318 85 319 321 327 311 278 288 309
220 221 224 232 241 248 255 253 247 246 247 244 240 235 231 231 235 239 229 224 217 223 227 229 223 228 249 269 294 262 259 280 288 293 288 303 303 325 281 321 333 318 295 302 303
227 233 239 240 249 239 226 218 212 214 197 241 232 232 232 232 234 227 224 230 237 240 245 248 243 248 262 262 257 247 269 321 345 280 306 296 279 289 48 5 4 345 325 318 308
233 236 238 226 214 210 207 205 202 201 228 242 228 228 233 239 242 243 246 251 257 264 263 261 255 259 266 265 279 284 55 10 321 314 278 250 303 305 27 348 342 5 337 351 342
215 210 208 207 207 208 205 198 187 160 251 230 228 232 234 241 244 247 247 247 228 47 331 303 301 291 322 309 300 322 341 322 316 252 268 20 320 328 359 350 359 357 335 340 307
202 205 209 209 205 196 188 179 174 217 190 173 206 192 192 214 234 215 198 211 200 174 172 297 233 277 342 102 257 244 276 243 300 285 300 188 296 308 305 301 331 344 336 331 339
204 205 203 188 180 176 172 164 210 171 182 155 159 166 180 187 187 190 191 140 219 202 205 233 238 276 291 250 206 270 299 290 289 292 292 255 268 297 290 180 330 334 341 351 351
198 193 184 174 170 168 172 170 205 179 171 162 150 156 189 179 163 176 220 208 192 187 184 199 245 263 288 295 318 284 252 268 263 273 208 291 340 274 293 309 312 314 325 330 357
186 182 178 171 165 166 145 215 185 179 175 163 185 171 198 202 167 221 239 245 217 217 221 217 231 264 290 289 237 284 320 273 280 270 269 288 266 277 275 286 295 292 312 317 323
186 184 176 170 168 176 198 187 183 187 191 193 169 191 186 206 210 203 212 236 226 241 248 254 236 241 257 272 246 269 260 266 276 283 257 245 274 193 277 276 274 272 276 305 315
189 188 184 178 167 182 187 191 191 197 200 198 201 202 208 219 218 217 237 250 252 257 257 267 275 278 290 274 239 252 267 274 254 263 271 294 280 283 274 286 266 264 271 281 304
191 193 192 188 186 172 196 191 198 197 201 210 218 221 224 228 228 240 247 260 251 254 256 260 257 256 247 255 293 296 270 262 269 257 265 289 281 297 206 284 286 265 262 270 277
199 202 200 198 194 193 194 196 199 205 208 214 220 224 226 230 241 243 244 250 248 251 259 264 270 267 265 254 241 251 259 257 250 249 253 244 272 298 281 292 281 275 272 273 269
205 208 208 207 201 200 207 206 208 216 215 223 227 227 233 238 239 245 249 258 261 270 261 271 274 278 277 270 268 266 264 266 265 262 261 267 266 264 264 270 276 277 276 277 267
208 211 213 214 213 213 218 220 225 226 227 234 232 235 238 240 247 250 258 262 270 275 278 278 280 284 288 276 269 271 277 268 272 260 253 262 257 255 263 270 278 278 273 270 271
Height
5890 5890 5891 5891 5892 5892 5892 5892 5893 5894 5895 5896 5897 5899 5901 5904 5906 5908 5910 5912 5913 5915 5916 5917 5918 5919 5919 5920 5921 5920 5923 5920 5918 5917 5916 5915 5915 5916 5916 5915 5914 5915 5912 5912 5911
5889 5890 5890 5891 5891 5892 5893 5893 5893 5895 5895 5896 5897 5899 5901 5903 5905 5907 5910 5911 5913 5915 5917 5918 5919 5920 5921 5921 5921 5920 5921 5919 5918 5917 5915 5914 5914 5914 5915 5914 5913 5912 5911 5910 5909
5887 5888 5890 5891 5891 5892 5893 5893 5894 5895 5896 5898 5899 5900 5902 5903 5906 5908 5911 5913 5914 5916 5918 5919 5920 5921 5921 5922 5922 5921 5920 5919 5917 5916 5915 5913 5912 5912 5914 5914 5912 5912 5910 5909 5909
5887 5887 5889 5891 5891 5892 5893 5894 5895 5896 5897 5899 5901 5902 5904 5906 5909 5910 5912 5914 5916 5917 5919 5920 5920 5921 5922 5923 5923 5922 5920 5918 5917 5916 5914 5913 5911 5910 5912 5913 5911 5910 5909 5908 5908
5888 5888 5889 5890 5891 5893 5894 5895 5896 5898 5899 5901 5903 5905 5906 5909 5910 5912 5914 5915 5917 5918 5919 5920 5921 5922 5922 5923 5923 5922 5920 5919 5918 5916 5914 5912 5911 5909 5908 5909 5909 5908 5908 5907 5907
5890 5890 5890 5892 5893 5894 5895 5897 5898 5900 5901 5903 5905 5906 5908 5911 5912 5913 5915 5916 5918 5919 5920 5920 5921 5922 5922 5923 5922 5921 5919 5918 5917 5916 5914 5911 5910 5908 5907 5906 5906 5906 5905 5906 5906
5890 5891 5892 5893 5895 5896 5897 5898 5900 5901 5903 5904 5906 5908 5910 5912 5912 5914 5915 5916 5917 5918 5919 5920 5921 5921 5922 5921 5921 5919 5918 5917 5916 5915 5913 5912 5910 5908 5905 5905 5905 5904 5905 5905 5904
5890 5891 5893 5894 5896 5897 5898 5900 5901 5903 5904 5905 5907 5908 5910 5911 5912 5914 5915 5916 5917 5918 5919 5919 5919 5920 5920 5920 5920 5919 5919 5923 5918 5914 5912 5911 5914 5912 5905 5903 5902 5902 5903 5903 5903
5888 5890 5892 5894 5895 5897 5898 5900 5901 5903 5904 5906 5907 5908 5910 5911 5913 5914 5915 5916 5917 5917 5918 5918 5918 5919 5919 5919 5920 5920 5923 5920 5917 5913 5911 5910 5910 5907 5905 5903 5901 5899 5900 5900 5901
5886 5888 5890 5892 5894 5895 5897 5899 5900 5902 5903 5905 5906 5908 5909 5910 5911 5912 5914 5914 5915 5915 5917 5917 5917 5917 5918 5918 5924 5924 5923 5919 5916 5916 5910 5909 5911 5910 5905 5902 5899 5897 5896 5897 5898
5883 5886 5888 5890 5892 5894 5895 5897 5900 5901 5901 5903 5904 5905 5907 5908 5909 5911 5912 5913 5913 5914 5914 5915 5916 5916 5918 5920 5918 5918 5917 5915 5916 5911 5908 5907 5907 5908 5904 5900 5898 5896 5894 5893 5894
5880 5882 5885 5887 5889 5891 5892 5894 5896 5899 5899 5900 5901 5903 5904 5906 5907 5908 5910 5911 5911 5912 5912 5914 5914 5915 5916 5916 5916 5915 5915 5918 5915 5908 5907 5906 5904 5904 5902 5899 5897 5896 5894 5893 5892
5876 5879 5881 5883 5885 5887 5889 5891 5893 5894 5896 5897 5898 5900 5902 5904 5905 5906 5908 5908 5909 5910 5911 5911 5915 5913 5913 5914 5914 5913 5916 5916 5912 5908 5906 5905 5900 5893 5900 5898 5896 5894 5893 5892 5890
5872 5875 5878 5880 5883 5883 5885 5886 5888 5891 5893 5894 5896 5898 5900 5902 5904 5904 5905 5908 5908 5909 5909 5910 5910 5911 5912 5912 5912 5916 5913 5910 5908 5907 5910 5906 5904 5896 5898 5895 5894 5892 5891 5890 5889
5869 5872 5874 5876 5878 5880 5883 5884 5886 5888 5893 5891 5892 5895 5897 5900 5902 5902 5903 5905 5906 5907 5909 5910 5909 5909 5910 5910 5910 5911 5909 5908 5907 5906 5909 5906 5902 5889 5870 5894 5894 5892 5890 5889 5886
5866 5868 5870 5872 5875 5878 5880 5882 5885 5889 5889 5888 5890 5893 5896 5898 5899 5900 5902 5903 5905 5906 5906 5907 5907 5907 5907 5907 5908 5908 5908 5907 5908 5909 5909 5902 5902 5892 5888 5897 5895 5893 5891 5889 5887
5862 5865 5867 5870 5874 5876 5878 5881 5885 5888 5887 5888 5889 5892 5894 5895 5896 5897 5899 5901 5903 5905 5906 5905 5905 5904 5905 5906 5906 5908 5909 5912 5910 5909 5901 5901 5901 5895 5895 5894 5894 5893 5891 5889 5886
5860 5863 5866 5868 5871 5874 5877 5880 5883 5886 5888 5887 5888 5891 5892 5894 5895 5896 5898 5900 5901 5903 5908 5911 5907 5905 5904 5904 5908 5910 5912 5912 5910 5910 5903 5901 5901 5893 5891 5890 5891 5892 5891 5888 5886
5858 5861 5863 5866 5869 5872 5876 5880 5887 5887 5885 5888 5889 5890 5893 5893 5897 5896 5898 5903 5906 5904 5906 5911 5910 5905 5903 5904 5905 5908 5909 5910 5909 5909 5908 5900 5891 5894 5884 5882 5885 5889 5890 5888 5885
5857 5859 5862 5865 5868 5871 5875 5875 5879 5881 5884 5888 5892 5894 5895 5894 5895 5897 5900 5900 5900 5899 5899 5905 5907 5906 5905 5902 5903 5904 5906 5907 5906 5906 5904 5899 5902 5891 5886 5884 5886 5889 5888 5887 5885
5855 5858 5861 5864 5867 5870 5873 5876 5877 5879 5883 5887 5892 5893 5898 5897 5896 5900 5903 5897 5897 5897 5897 5899 5904 5905 5905 5903 5904 5902 5903 5904 5907 5906 5905 5904 5897 5891 5887 5886 5887 5887 5886 5885 5884
5854 5857 5859 5862 5866 5869 5873 5874 5876 5878 5881 5884 5887 5894 5895 5894 5897 5899 5900 5894 5894 5895 5896 5898 5899 5902 5904 5898 5902 5902 5902 5902 5903 5904 5900 5898 5891 5887 5885 5884 5885 5884 5884 5884 5882
5853 5856 5858 5861 5864 5867 5869 5871 5873 5876 5879 5882 5883 5886 5887 5890 5891 5891 5890 5890 5891 5892 5891 5893 5894 5898 5900 5900 5893 5893 5897 5900 5900 5901 5898 5896 5891 5884 5879 5879 5881 5881 5882 5881 5881
5852 5855 5857 5860 5862 5864 5867 5869 5871 5873 5876 5878 5880 5882 5884 5885 5886 5887 5887 5886 5888 5888 5889 5889 5890 5890 5894 5895 5889 5889 5893 5896 5895 5895 5894 5883 5875 5877 5863 5871 5877 5878 5878 5878 5878
5849 5852 5855 5857 5859 5861 5863 5865 5868 5870 5871 5874 5876 5878 5879 5881 5882 5883 5883 5884 5885 5885 5885 5885 5885 5885 5885 5886 5885 5884 5884 5885 5885 5887 5888 5887 5884 5874 5864 5867 5872 5874 5873 5873 5873
5847 5849 5852 5855 5857 5860 5862 5863 5864 5866 5869 5870 5872 5874 5875 5876 5878 5878 5879 5879 5879 5880 5881 5881 5881 5880 5881 5879 5878 5878 5878 5877 5877 5878 5879 5882 5882 5870 5869 5867 5866 5867 5867 5867 5867
5843 5846 5849 5851 5854 5857 5857 5859 5861 5864 5865 5866 5869 5870 5871 5872 5874 5874 5874 5874 5874 5875 5875 5875 5874 5874 5875 5873 5872 5872 5873 5871 5871 5871 5873 5876 5871 5862 5860 5860 5859 5859 5860 5861 5860